Precipitable_Water
0.93 0.93 0.93 0.93 0.93 0.91 0.91 0.91 0.91 0.91 0.91 0.91 0.91 0.93 0.93 0.95 0.95 0.95 0.95 0.95 0.95 0.95 0.97 0.99 0.99 1.01 1.01 1.03 1.03 1.03 1.03 1.05 1.05 1.07 1.07 1.07 1.07 1.07 1.05 1.05 1.03 1.03 1.03 1.03 1.01 0.99 0.99 0.99 0.99 0.97 0.95 0.93 0.91 0.88 0.86 0.86 0.84 0.84 0.82 0.80 0.76 0.74 0.74 0.72 0.70 0.70 0.68 0.66 0.66
0.93 0.93 0.95 0.93 0.93 0.93 0.91 0.91 0.91 0.93 0.93 0.93 0.95 0.95 0.95 0.95 0.95 0.95 0.95 0.95 0.95 0.97 0.99 1.01 1.01 1.03 1.03 1.03 1.03 1.05 1.05 1.05 1.05 1.07 1.07 1.07 1.05 1.05 1.03 1.03 1.03 1.01 1.01 0.99 0.99 0.99 0.97 0.99 0.95 0.91 0.90 0.88 0.86 0.84 0.84 0.84 0.82 0.80 0.78 0.76 0.74 0.74 0.72 0.70 0.70 0.68 0.68 0.66 0.64
0.93 0.95 0.95 0.93 0.93 0.91 0.91 0.91 0.91 0.93 0.93 0.95 0.95 0.95 0.95 0.95 0.95 0.95 0.97 0.97 0.99 0.99 1.01 1.01 1.03 1.03 1.03 1.03 1.05 1.05 1.05 1.05 1.05 1.05 1.05 1.03 1.03 1.03 1.03 1.03 1.03 1.01 1.01 0.99 0.99 0.99 0.97 0.97 0.90 0.86 0.86 0.84 0.82 0.82 0.82 0.80 0.80 0.78 0.76 0.74 0.74 0.72 0.70 0.68 0.68 0.66 0.66 0.64 0.62
0.95 0.95 0.93 0.93 0.91 0.91 0.91 0.91 0.91 0.93 0.95 0.95 0.97 0.97 0.97 0.97 0.97 0.97 0.99 0.99 1.01 1.01 1.01 1.01 1.03 1.03 1.03 1.03 1.03 1.03 1.03 1.03 1.03 1.03 1.03 1.03 1.03 1.03 1.03 1.03 1.01 1.01 0.99 0.99 0.97 0.95 0.93 0.90 0.88 0.86 0.82 0.82 0.80 0.80 0.78 0.78 0.78 0.76 0.76 0.76 0.74 0.72 0.70 0.66 0.66 0.64 0.62 0.60 0.58
0.95 0.95 0.93 0.93 0.91 0.91 0.91 0.93 0.93 0.95 0.95 0.97 0.97 0.97 0.97 0.97 0.97 0.99 0.99 1.01 0.99 0.99 0.99 1.03 1.03 1.03 1.03 1.01 1.01 1.01 1.03 1.03 1.03 1.03 1.03 1.03 1.03 1.01 1.01 1.01 0.99 0.97 0.97 0.95 0.93 0.91 0.90 0.86 0.84 0.82 0.80 0.80 0.78 0.78 0.78 0.78 0.76 0.76 0.76 0.72 0.70 0.70 0.68 0.66 0.64 0.62 0.60 0.58 0.54
0.93 0.93 0.95 0.93 0.93 0.93 0.93 0.95 0.95 0.95 0.97 0.97 0.97 0.95 0.95 0.95 0.97 0.97 0.97 0.97 0.97 0.99 0.99 1.01 1.01 1.01 0.99 0.99 1.01 1.01 1.01 1.03 1.03 1.03 1.03 1.01 1.01 0.99 0.99 0.97 0.97 0.95 0.93 0.93 0.90 0.86 0.82 0.82 0.80 0.80 0.80 0.78 0.78 0.78 0.78 0.78 0.78 0.76 0.72 0.66 0.66 0.64 0.64 0.62 0.60 0.58 0.56 0.54 0.50
0.93 0.93 0.95 0.95 0.95 0.95 0.95 0.95 0.97 0.97 0.97 0.97 0.95 0.95 0.95 0.95 0.95 0.97 0.97 0.97 0.99 0.99 0.99 0.99 0.99 0.97 0.97 0.99 0.99 1.01 1.01 1.03 1.03 1.01 1.01 0.99 0.99 0.97 0.95 0.93 0.91 0.91 0.90 0.88 0.84 0.82 0.82 0.82 0.80 0.80 0.78 0.78 0.78 0.78 0.78 0.76 0.76 0.70 0.66 0.60 0.60 0.60 0.60 0.58 0.56 0.54 0.52 0.52 0.48
0.95 0.95 0.95 0.95 0.95 0.95 0.95 0.97 0.97 0.97 0.95 0.95 0.95 0.95 0.95 0.95 0.95 0.97 0.97 0.99 0.99 1.01 1.03 1.03 1.01 0.99 0.99 0.99 0.99 1.01 1.01 1.01 0.99 0.99 0.99 0.99 0.97 0.93 0.90 0.88 0.86 0.86 0.84 0.84 0.82 0.80 0.80 0.80 0.80 0.78 0.78 0.78 0.74 0.74 0.74 0.72 0.70 0.66 0.60 0.58 0.58 0.56 0.56 0.54 0.54 0.54 0.52 0.48 0.44
0.93 0.95 0.95 0.97 0.97 0.97 0.97 0.97 0.97 0.95 0.95 0.95 0.95 0.95 0.97 0.97 0.97 0.97 0.97 0.99 1.01 1.05 1.07 1.07 1.03 1.01 1.01 0.99 0.99 0.99 0.99 0.97 0.97 0.95 0.95 0.93 0.91 0.90 0.86 0.86 0.84 0.84 0.84 0.84 0.82 0.80 0.78 0.78 0.78 0.76 0.76 0.74 0.72 0.70 0.70 0.68 0.66 0.62 0.58 0.56 0.56 0.54 0.54 0.52 0.52 0.50 0.48 0.42 0.38
0.93 0.93 0.95 0.97 0.97 0.97 0.97 0.97 0.97 0.95 0.95 0.95 0.97 0.97 0.99 0.99 0.99 0.99 0.99 1.01 1.03 1.03 1.05 1.05 1.03 1.01 0.99 0.99 0.99 0.97 0.97 0.97 0.95 0.93 0.91 0.91 0.90 0.88 0.88 0.86 0.84 0.82 0.82 0.82 0.78 0.78 0.76 0.76 0.74 0.74 0.72 0.72 0.70 0.68 0.66 0.64 0.60 0.58 0.56 0.54 0.54 0.52 0.50 0.50 0.48 0.46 0.44 0.38 0.36
0.93 0.95 0.97 0.97 0.97 0.97 0.97 0.97 0.97 0.97 0.99 0.99 0.99 0.99 0.99 0.99 0.99 1.01 1.01 1.01 1.01 0.99 0.99 1.01 0.99 0.99 0.99 0.99 0.97 0.97 0.97 0.97 0.93 0.91 0.91 0.90 0.88 0.88 0.86 0.84 0.82 0.80 0.78 0.76 0.76 0.76 0.76 0.72 0.72 0.70 0.70 0.70 0.68 0.66 0.64 0.60 0.58 0.54 0.54 0.52 0.52 0.50 0.46 0.46 0.44 0.42 0.38 0.32 0.30
0.93 0.95 0.97 0.97 0.97 0.97 0.97 0.97 0.97 0.99 1.01 1.01 1.01 0.99 0.99 0.99 0.99 1.01 1.01 0.99 0.97 0.97 0.97 0.99 0.99 0.99 0.99 0.99 0.99 0.97 0.97 0.95 0.91 0.90 0.88 0.86 0.84 0.84 0.82 0.80 0.78 0.78 0.76 0.76 0.76 0.74 0.74 0.70 0.70 0.68 0.66 0.66 0.64 0.62 0.60 0.58 0.54 0.52 0.50 0.50 0.48 0.46 0.44 0.40 0.38 0.36 0.32 0.28 0.27
0.95 0.95 0.97 0.97 0.97 0.97 0.97 0.97 0.97 0.99 1.01 0.99 0.99 0.99 0.99 1.01 1.03 1.03 0.99 0.97 0.95 0.97 0.99 0.99 1.01 1.01 0.99 0.99 0.97 0.95 0.93 0.93 0.90 0.86 0.84 0.82 0.82 0.80 0.78 0.76 0.76 0.74 0.74 0.74 0.74 0.72 0.72 0.70 0.68 0.66 0.62 0.62 0.60 0.58 0.58 0.56 0.52 0.50 0.46 0.46 0.44 0.40 0.38 0.36 0.34 0.30 0.27 0.27 0.25
0.95 0.95 0.95 0.95 0.95 0.95 0.95 0.97 0.97 0.99 0.99 0.99 0.99 1.01 1.01 1.03 1.05 1.03 0.99 0.97 0.97 0.99 1.01 1.01 1.01 1.01 0.97 0.95 0.93 0.91 0.90 0.88 0.86 0.84 0.80 0.78 0.78 0.76 0.76 0.76 0.74 0.74 0.72 0.72 0.72 0.70 0.68 0.68 0.66 0.62 0.60 0.58 0.58 0.56 0.56 0.52 0.50 0.46 0.42 0.40 0.38 0.36 0.34 0.32 0.30 0.28 0.25 0.25 0.25
0.95 0.95 0.95 0.95 0.95 0.95 0.95 0.95 0.95 0.97 0.97 0.97 0.99 1.01 1.01 1.03 1.03 1.01 0.99 0.97 0.99 1.01 1.01 1.01 0.99 0.97 0.93 0.91 0.90 0.88 0.86 0.84 0.82 0.80 0.78 0.76 0.76 0.74 0.74 0.74 0.72 0.70 0.70 0.68 0.68 0.66 0.66 0.64 0.62 0.60 0.58 0.56 0.54 0.54 0.50 0.48 0.46 0.42 0.40 0.36 0.34 0.32 0.30 0.28 0.28 0.27 0.27 0.27 0.27
0.93 0.93 0.93 0.93 0.93 0.93 0.93 0.93 0.95 0.95 0.97 0.99 0.99 0.99 1.01 1.01 1.01 0.99 0.97 0.97 0.99 0.99 0.99 0.97 0.95 0.91 0.90 0.88 0.86 0.84 0.82 0.80 0.80 0.78 0.76 0.74 0.74 0.74 0.72 0.70 0.70 0.68 0.66 0.66 0.64 0.62 0.62 0.60 0.58 0.58 0.56 0.54 0.52 0.48 0.46 0.44 0.42 0.40 0.38 0.34 0.32 0.30 0.28 0.28 0.27 0.27 0.27 0.27 0.27
0.91 0.91 0.93 0.93 0.91 0.91 0.91 0.93 0.93 0.95 0.97 0.99 0.99 0.99 0.97 0.97 0.99 0.99 0.97 0.97 0.97 0.95 0.93 0.91 0.91 0.88 0.86 0.84 0.84 0.82 0.80 0.78 0.78 0.76 0.76 0.72 0.72 0.70 0.70 0.68 0.68 0.66 0.66 0.62 0.60 0.60 0.58 0.58 0.56 0.56 0.54 0.52 0.48 0.46 0.42 0.40 0.38 0.36 0.34 0.32 0.30 0.28 0.28 0.28 0.28 0.28 0.28 0.28 0.28
0.90 0.91 0.91 0.91 0.91 0.91 0.91 0.91 0.91 0.93 0.97 0.97 0.97 0.97 0.95 0.97 0.97 0.97 0.95 0.95 0.93 0.91 0.90 0.88 0.86 0.86 0.84 0.80 0.80 0.80 0.78 0.78 0.76 0.76 0.74 0.72 0.70 0.70 0.68 0.66 0.66 0.64 0.62 0.60 0.58 0.56 0.56 0.54 0.54 0.52 0.52 0.50 0.46 0.42 0.38 0.36 0.34 0.32 0.30 0.30 0.28 0.28 0.28 0.28 0.28 0.28 0.28 0.28 0.28
0.90 0.90 0.91 0.91 0.91 0.91 0.91 0.91 0.91 0.93 0.95 0.95 0.95 0.95 0.95 0.95 0.97 0.95 0.93 0.91 0.90 0.88 0.86 0.84 0.82 0.82 0.80 0.78 0.78 0.78 0.76 0.76 0.74 0.74 0.72 0.72 0.70 0.68 0.66 0.64 0.62 0.62 0.60 0.58 0.56 0.54 0.54 0.52 0.52 0.50 0.48 0.48 0.42 0.38 0.36 0.32 0.30 0.30 0.28 0.28 0.28 0.28 0.28 0.28 0.28 0.30 0.30 0.30 0.30
0.88 0.90 0.90 0.91 0.91 0.91 0.91 0.91 0.93 0.93 0.95 0.95 0.93 0.93 0.93 0.95 0.95 0.91 0.88 0.88 0.86 0.84 0.84 0.82 0.80 0.78 0.78 0.76 0.76 0.76 0.74 0.74 0.74 0.72 0.72 0.70 0.66 0.64 0.64 0.62 0.60 0.58 0.58 0.56 0.54 0.52 0.52 0.50 0.48 0.48 0.46 0.44 0.38 0.36 0.34 0.30 0.30 0.28 0.28 0.28 0.28 0.28 0.28 0.28 0.30 0.30 0.30 0.30 0.30
0.88 0.90 0.90 0.91 0.93 0.93 0.93 0.93 0.93 0.93 0.93 0.93 0.91 0.91 0.93 0.93 0.93 0.91 0.88 0.84 0.84 0.82 0.82 0.80 0.78 0.78 0.76 0.76 0.74 0.74 0.72 0.72 0.72 0.70 0.68 0.66 0.64 0.62 0.60 0.60 0.58 0.56 0.56 0.54 0.52 0.52 0.50 0.48 0.46 0.44 0.42 0.38 0.36 0.34 0.32 0.30 0.28 0.28 0.28 0.28 0.28 0.28 0.28 0.28 0.30 0.30 0.30 0.32 0.32
0.90 0.90 0.91 0.91 0.93 0.95 0.95 0.95 0.95 0.93 0.91 0.91 0.91 0.91 0.91 0.91 0.90 0.88 0.86 0.84 0.82 0.82 0.80 0.78 0.76 0.76 0.74 0.74 0.72 0.72 0.72 0.70 0.70 0.68 0.66 0.64 0.62 0.60 0.58 0.56 0.56 0.54 0.54 0.52 0.52 0.50 0.48 0.44 0.42 0.40 0.38 0.34 0.32 0.32 0.30 0.30 0.28 0.28 0.28 0.28 0.28 0.28 0.28 0.28 0.30 0.30 0.30 0.32 0.32
0.90 0.91 0.91 0.93 0.93 0.95 0.95 0.93 0.93 0.91 0.91 0.90 0.90 0.90 0.90 0.88 0.88 0.86 0.84 0.82 0.80 0.80 0.78 0.76 0.76 0.74 0.74 0.72 0.72 0.70 0.70 0.68 0.66 0.64 0.64 0.62 0.60 0.58 0.56 0.54 0.54 0.52 0.52 0.50 0.48 0.48 0.46 0.42 0.40 0.38 0.34 0.32 0.32 0.30 0.30 0.28 0.28 0.28 0.28 0.28 0.28 0.28 0.28 0.30 0.30 0.30 0.32 0.32 0.32
0.90 0.91 0.91 0.93 0.93 0.93 0.93 0.93 0.91 0.90 0.90 0.88 0.88 0.88 0.86 0.86 0.84 0.84 0.82 0.80 0.78 0.78 0.76 0.74 0.74 0.72 0.72 0.70 0.70 0.68 0.68 0.66 0.64 0.62 0.62 0.60 0.58 0.56 0.56 0.54 0.52 0.52 0.50 0.48 0.48 0.44 0.42 0.40 0.38 0.36 0.32 0.32 0.30 0.30 0.28 0.28 0.28 0.27 0.27 0.27 0.27 0.28 0.28 0.28 0.30 0.30 0.30 0.32 0.32
0.90 0.90 0.91 0.91 0.91 0.91 0.91 0.91 0.90 0.88 0.88 0.88 0.86 0.86 0.84 0.82 0.82 0.80 0.80 0.78 0.76 0.74 0.74 0.72 0.72 0.70 0.70 0.70 0.68 0.68 0.66 0.64 0.62 0.62 0.60 0.58 0.56 0.56 0.54 0.54 0.52 0.50 0.50 0.48 0.46 0.44 0.42 0.40 0.38 0.36 0.32 0.30 0.30 0.28 0.28 0.28 0.27 0.27 0.27 0.27 0.27 0.27 0.28 0.28 0.30 0.30 0.30 0.32 0.32
0.88 0.90 0.90 0.90 0.90 0.90 0.90 0.90 0.88 0.86 0.86 0.86 0.84 0.82 0.82 0.80 0.80 0.78 0.78 0.74 0.74 0.72 0.72 0.70 0.70 0.70 0.68 0.68 0.68 0.66 0.64 0.62 0.62 0.60 0.58 0.56 0.54 0.54 0.54 0.52 0.50 0.48 0.48 0.46 0.44 0.42 0.40 0.38 0.36 0.34 0.32 0.30 0.28 0.28 0.27 0.27 0.27 0.27 0.27 0.27 0.27 0.27 0.28 0.28 0.28 0.30 0.30 0.32 0.32
0.88 0.88 0.88 0.88 0.88 0.88 0.88 0.88 0.86 0.86 0.84 0.82 0.82 0.80 0.80 0.78 0.78 0.76 0.76 0.72 0.72 0.70 0.70 0.70 0.68 0.68 0.68 0.66 0.66 0.64 0.62 0.60 0.60 0.58 0.56 0.56 0.54 0.54 0.52 0.50 0.50 0.48 0.46 0.46 0.44 0.42 0.40 0.38 0.36 0.34 0.32 0.32 0.28 0.28 0.27 0.27 0.27 0.27 0.27 0.27 0.28 0.28 0.28 0.28 0.28 0.28 0.30 0.30 0.32
0.86 0.86 0.86 0.86 0.86 0.86 0.86 0.86 0.84 0.82 0.82 0.80 0.78 0.78 0.78 0.76 0.76 0.76 0.74 0.72 0.70 0.68 0.68 0.68 0.68 0.66 0.66 0.64 0.64 0.62 0.60 0.58 0.58 0.56 0.56 0.54 0.54 0.52 0.50 0.50 0.48 0.48 0.46 0.46 0.42 0.40 0.38 0.36 0.36 0.34 0.34 0.32 0.30 0.28 0.28 0.27 0.27 0.27 0.27 0.28 0.28 0.28 0.28 0.28 0.28 0.28 0.30 0.30 0.30
0.84 0.84 0.86 0.86 0.84 0.84 0.84 0.84 0.82 0.80 0.78 0.78 0.78 0.76 0.76 0.76 0.74 0.74 0.72 0.70 0.68 0.68 0.66 0.66 0.66 0.64 0.64 0.62 0.62 0.60 0.58 0.56 0.56 0.56 0.54 0.52 0.52 0.50 0.50 0.48 0.48 0.48 0.46 0.44 0.42 0.40 0.38 0.36 0.36 0.34 0.32 0.32 0.30 0.28 0.28 0.28 0.28 0.27 0.28 0.28 0.28 0.28 0.28 0.28 0.28 0.28 0.28 0.28 0.30
0.82 0.84 0.84 0.84 0.82 0.82 0.82 0.82 0.80 0.78 0.78 0.76 0.76 0.76 0.74 0.74 0.72 0.72 0.70 0.68 0.66 0.66 0.66 0.66 0.64 0.64 0.62 0.62 0.60 0.58 0.58 0.56 0.54 0.54 0.52 0.50 0.50 0.48 0.48 0.48 0.48 0.46 0.46 0.46 0.42 0.40 0.38 0.36 0.36 0.34 0.32 0.32 0.30 0.30 0.28 0.28 0.28 0.28 0.28 0.28 0.28 0.28 0.28 0.28 0.28 0.28 0.28 0.28 0.28
0.82 0.82 0.82 0.80 0.80 0.80 0.80 0.78 0.78 0.76 0.76 0.76 0.74 0.74 0.74 0.72 0.70 0.70 0.68 0.68 0.68 0.68 0.66 0.66 0.64 0.62 0.60 0.60 0.58 0.56 0.56 0.54 0.52 0.50 0.50 0.48 0.46 0.46 0.46 0.46 0.46 0.46 0.44 0.44 0.42 0.40 0.38 0.36 0.36 0.34 0.32 0.32 0.30 0.30 0.28 0.28 0.28 0.28 0.28 0.28 0.28 0.28 0.28 0.28 0.28 0.28 0.28 0.28 0.28
0.80 0.80 0.78 0.78 0.76 0.76 0.76 0.74 0.76 0.76 0.74 0.74 0.74 0.72 0.72 0.70 0.68 0.68 0.68 0.68 0.68 0.66 0.64 0.64 0.62 0.60 0.58 0.58 0.56 0.56 0.54 0.54 0.52 0.50 0.48 0.46 0.46 0.46 0.46 0.46 0.44 0.44 0.44 0.42 0.42 0.40 0.38 0.36 0.34 0.34 0.32 0.32 0.30 0.30 0.30 0.28 0.28 0.28 0.28 0.28 0.28 0.28 0.28 0.28 0.27 0.27 0.27 0.28 0.27
0.78 0.78 0.76 0.76 0.74 0.74 0.74 0.72 0.72 0.72 0.72 0.72 0.70 0.70 0.70 0.68 0.68 0.68 0.68 0.68 0.68 0.66 0.62 0.62 0.60 0.58 0.56 0.56 0.54 0.54 0.52 0.52 0.50 0.48 0.46 0.46 0.46 0.44 0.44 0.44 0.44 0.44 0.42 0.42 0.42 0.40 0.38 0.36 0.34 0.34 0.32 0.32 0.30 0.30 0.30 0.30 0.28 0.28 0.28 0.28 0.28 0.28 0.28 0.28 0.28 0.27 0.27 0.27 0.27
0.76 0.76 0.74 0.74 0.72 0.72 0.72 0.70 0.70 0.70 0.70 0.70 0.70 0.68 0.68 0.68 0.66 0.66 0.66 0.66 0.66 0.64 0.62 0.60 0.60 0.58 0.56 0.56 0.54 0.52 0.52 0.50 0.48 0.48 0.46 0.46 0.44 0.44 0.42 0.42 0.42 0.42 0.42 0.42 0.40 0.40 0.38 0.38 0.36 0.34 0.32 0.32 0.30 0.30 0.30 0.30 0.30 0.28 0.28 0.28 0.28 0.28 0.28 0.28 0.28 0.28 0.27 0.27 0.27
0.74 0.74 0.72 0.72 0.70 0.70 0.70 0.68 0.68 0.68 0.68 0.68 0.68 0.66 0.66 0.66 0.66 0.66 0.66 0.66 0.64 0.62 0.60 0.60 0.58 0.58 0.56 0.56 0.54 0.52 0.50 0.48 0.46 0.46 0.46 0.46 0.44 0.42 0.42 0.42 0.42 0.44 0.42 0.42 0.40 0.40 0.38 0.38 0.36 0.34 0.32 0.32 0.30 0.30 0.30 0.30 0.28 0.28 0.28 0.28 0.28 0.28 0.28 0.28 0.28 0.28 0.28 0.27 0.28
0.74 0.72 0.70 0.70 0.70 0.68 0.68 0.68 0.66 0.66 0.66 0.66 0.66 0.66 0.66 0.66 0.66 0.66 0.66 0.64 0.62 0.60 0.58 0.58 0.58 0.56 0.56 0.54 0.52 0.50 0.48 0.46 0.46 0.46 0.46 0.44 0.42 0.42 0.42 0.42 0.42 0.42 0.42 0.42 0.40 0.40 0.38 0.36 0.36 0.34 0.32 0.30 0.30 0.30 0.30 0.28 0.28 0.28 0.28 0.28 0.28 0.28 0.28 0.28 0.28 0.28 0.28 0.28 0.28
0.72 0.72 0.70 0.68 0.68 0.66 0.66 0.66 0.66 0.64 0.64 0.64 0.64 0.64 0.64 0.64 0.64 0.64 0.64 0.64 0.62 0.60 0.58 0.56 0.56 0.54 0.54 0.52 0.50 0.48 0.48 0.46 0.46 0.46 0.44 0.44 0.42 0.42 0.40 0.42 0.42 0.42 0.42 0.42 0.40 0.38 0.38 0.36 0.36 0.34 0.32 0.32 0.30 0.30 0.30 0.28 0.28 0.28 0.28 0.28 0.28 0.28 0.28 0.28 0.28 0.28 0.28 0.28 0.30
0.72 0.70 0.70 0.68 0.66 0.66 0.64 0.64 0.64 0.64 0.64 0.64 0.64 0.64 0.64 0.64 0.64 0.62 0.62 0.62 0.60 0.58 0.58 0.56 0.54 0.54 0.52 0.50 0.50 0.48 0.48 0.48 0.46 0.44 0.42 0.42 0.42 0.40 0.40 0.40 0.40 0.42 0.42 0.40 0.40 0.38 0.38 0.36 0.34 0.34 0.32 0.32 0.30 0.30 0.30 0.28 0.28 0.28 0.27 0.27 0.27 0.27 0.28 0.28 0.28 0.28 0.28 0.28 0.30
0.70 0.70 0.70 0.68 0.66 0.64 0.64 0.64 0.62 0.62 0.64 0.64 0.64 0.64 0.64 0.64 0.62 0.62 0.62 0.62 0.60 0.58 0.58 0.56 0.54 0.52 0.52 0.50 0.48 0.48 0.48 0.48 0.46 0.44 0.42 0.42 0.40 0.40 0.40 0.40 0.40 0.40 0.40 0.40 0.38 0.38 0.36 0.36 0.34 0.34 0.32 0.32 0.30 0.30 0.30 0.28 0.28 0.27 0.27 0.27 0.27 0.27 0.27 0.28 0.28 0.28 0.28 0.28 0.30
0.70 0.70 0.68 0.66 0.66 0.64 0.64 0.62 0.62 0.64 0.64 0.64 0.62 0.62 0.62 0.62 0.62 0.62 0.60 0.60 0.60 0.60 0.58 0.56 0.54 0.52 0.50 0.50 0.48 0.48 0.46 0.46 0.46 0.44 0.42 0.42 0.40 0.40 0.40 0.40 0.40 0.40 0.40 0.40 0.38 0.38 0.36 0.36 0.34 0.34 0.32 0.32 0.30 0.30 0.30 0.28 0.28 0.27 0.27 0.27 0.27 0.27 0.27 0.28 0.28 0.28 0.28 0.28 0.28
0.70 0.68 0.68 0.66 0.66 0.64 0.62 0.62 0.62 0.64 0.64 0.64 0.62 0.62 0.62 0.62 0.60 0.60 0.60 0.60 0.60 0.58 0.58 0.56 0.54 0.52 0.50 0.48 0.48 0.46 0.46 0.44 0.44 0.44 0.42 0.42 0.40 0.40 0.40 0.40 0.38 0.38 0.38 0.38 0.38 0.36 0.36 0.34 0.34 0.34 0.32 0.32 0.30 0.30 0.28 0.28 0.27 0.27 0.27 0.27 0.27 0.27 0.27 0.28 0.28 0.28 0.28 0.28 0.28
Wind_Speed
17 17 17 16 16 16 16 16 16 15 15 15 15 15 15 15 15 15 15 15 15 15 15 14 14 14 14 14 14 14 14 14 14 14 15 15 15 15 15 15 15 15 15 15 15 15 15 15 15 16 16 17 17 18 18 19 19 20 20 21 21 22 22 23 24 24 25 25 25
17 17 17 16 16 16 16 16 15 15 15 15 15 15 15 15 15 14 15 15 15 14 14 14 14 14 14 14 13 13 14 14 14 14 14 14 14 14 14 14 14 14 14 14 14 14 15 15 15 16 16 17 17 18 18 19 19 20 20 21 22 22 23 23 24 24 25 25 25
17 17 17 16 16 16 16 16 15 15 15 15 15 15 15 15 14 14 14 14 14 14 14 14 14 14 14 13 13 13 14 14 14 14 14 14 14 14 14 14 13 13 13 13 14 14 15 15 16 16 17 17 18 18 19 19 20 20 21 21 22 23 23 24 24 24 25 25 26
17 17 17 16 16 16 16 16 15 15 15 15 15 15 15 15 14 14 14 14 14 14 14 14 14 14 13 13 13 13 13 13 13 13 13 13 13 13 13 13 13 13 13 13 14 14 15 15 16 16 17 17 18 18 19 19 20 20 21 22 23 23 24 24 24 24 25 25 26
17 17 17 17 16 16 16 15 15 15 15 15 15 15 15 14 14 14 14 14 14 14 14 14 13 13 13 13 13 13 13 13 13 13 13 13 12 12 12 12 12 13 13 14 14 15 15 16 16 17 17 18 18 19 19 20 20 21 21 22 22 23 23 24 24 25 25 25 26
17 17 17 17 16 16 16 15 15 15 15 15 15 14 14 14 14 14 14 14 14 14 14 13 13 13 13 12 12 12 12 12 12 12 12 12 12 12 12 13 13 14 14 14 15 15 15 16 16 17 17 18 18 19 19 20 20 21 21 22 22 23 23 24 24 25 25 26 26
17 17 17 17 16 16 16 15 15 15 15 15 15 14 14 14 14 14 14 14 14 14 13 13 13 13 12 12 12 12 12 12 11 11 11 12 12 13 13 14 14 14 14 14 15 15 15 16 17 17 17 18 18 19 19 20 20 21 21 22 22 23 23 24 24 25 25 26 26
17 17 17 16 16 16 16 15 15 15 15 15 15 14 14 14 14 14 14 14 14 14 13 13 12 12 12 11 11 11 11 11 11 11 12 12 12 13 13 14 14 14 14 14 15 15 16 16 17 17 17 18 18 19 19 20 20 21 21 21 22 23 23 24 25 25 26 26 27
17 17 17 16 16 16 15 15 15 15 15 15 14 14 14 14 14 14 13 13 14 14 13 12 12 11 11 11 11 11 11 11 11 12 12 12 12 13 13 13 13 13 14 15 15 15 16 16 17 17 17 18 18 19 20 20 20 20 21 21 22 23 24 24 25 26 26 26 27
17 17 16 16 16 15 15 15 15 15 15 15 14 14 14 14 14 14 13 13 13 13 13 12 11 11 11 11 11 11 11 11 11 12 12 12 12 12 13 13 13 14 14 15 16 16 16 16 16 17 18 18 19 19 19 20 20 20 21 22 22 23 24 25 25 26 26 27 27
17 16 16 16 16 15 15 15 15 15 15 14 14 14 14 14 14 14 14 13 13 13 12 12 12 11 11 11 11 11 11 11 11 11 11 12 12 12 13 13 14 14 15 16 16 16 16 17 17 17 18 18 19 19 19 20 20 20 21 22 23 23 24 25 26 26 26 27 27
16 16 16 15 15 15 15 15 15 15 14 14 14 14 14 14 14 14 13 13 12 12 12 12 12 11 11 11 10 10 10 10 11 11 11 12 12 13 13 14 14 15 15 16 16 16 17 17 17 18 18 18 19 19 19 20 20 21 22 22 23 24 24 25 26 26 26 27 27
16 16 15 15 15 15 15 15 15 15 14 14 13 13 14 14 14 13 12 12 12 12 12 11 11 10 10 10 10 10 10 11 11 12 12 12 13 13 14 14 14 15 15 16 16 17 17 17 17 17 18 18 19 19 20 20 21 21 22 22 23 24 24 25 26 26 26 26 26
16 16 15 15 15 15 15 15 14 14 14 14 14 14 14 13 13 12 11 11 11 11 11 10 10 10 10 10 10 11 11 11 12 12 12 13 13 13 13 14 14 15 15 16 16 17 17 17 17 17 18 18 19 19 20 20 21 21 22 23 23 24 24 25 25 26 26 26 26
16 15 15 15 15 15 15 14 14 14 14 14 14 13 13 13 12 11 11 11 11 10 10 9 9 9 9 10 10 11 11 12 12 12 12 13 13 13 13 14 14 15 15 16 16 16 17 17 17 17 18 18 19 19 20 21 21 22 22 23 23 24 24 25 25 25 25 26 26
16 15 15 15 15 15 14 14 14 14 14 14 13 13 12 12 12 11 11 10 10 10 9 9 9 9 10 10 11 11 11 12 12 12 12 12 13 13 13 14 15 15 15 15 16 16 16 17 17 17 18 18 19 19 20 21 21 22 22 23 23 24 24 25 25 25 25 25 26
16 16 16 15 15 15 14 14 14 14 14 14 13 12 12 12 12 11 11 10 10 10 10 10 10 10 10 11 11 11 12 12 12 12 12 12 13 13 14 14 15 15 15 15 15 15 16 16 17 17 18 18 19 19 20 21 21 22 22 23 23 24 24 24 24 25 25 25 26
16 16 16 15 15 15 15 15 15 14 14 13 13 12 12 12 12 11 11 11 10 10 10 10 10 11 11 11 11 12 12 12 12 12 12 13 13 13 14 14 14 14 14 15 15 15 16 16 17 17 18 18 19 19 20 21 21 22 22 23 23 23 24 24 24 24 25 25 25
16 16 16 15 15 15 15 15 15 14 14 13 12 12 12 12 12 11 11 11 11 11 11 10 11 11 11 11 11 12 12 12 12 12 12 13 13 13 13 14 14 14 14 14 15 15 16 16 17 17 18 18 19 20 20 21 21 21 22 22 23 23 23 24 24 24 24 25 25
16 16 16 16 16 15 15 15 14 14 13 13 12 12 11 12 11 11 11 11 11 11 11 11 11 11 11 11 11 11 12 12 12 12 12 13 13 13 13 13 13 14 14 14 15 15 15 16 17 17 18 18 19 19 20 20 21 21 22 22 22 23 23 23 23 24 24 25 25
16 16 16 16 16 16 15 15 14 13 13 12 12 12 12 12 11 11 11 11 11 11 11 10 10 11 11 11 11 11 12 12 12 12 12 13 13 13 13 13 13 14 14 14 15 15 15 16 16 17 18 18 19 19 20 20 21 21 21 22 22 22 23 23 23 24 24 25 25
16 16 16 16 16 16 15 14 14 13 13 12 12 12 12 12 11 11 11 11 11 11 10 10 11 11 11 11 11 11 11 11 12 12 12 12 13 13 13 13 13 13 14 14 14 15 15 16 16 17 18 18 19 19 20 20 20 21 21 22 22 22 22 23 23 24 24 25 25
17 16 16 16 16 15 15 14 14 13 13 12 12 12 12 12 12 11 11 11 11 11 11 11 11 11 11 11 11 11 11 11 11 12 12 12 12 12 13 13 13 13 14 14 14 15 15 16 17 17 18 18 18 19 19 20 20 21 21 21 22 22 22 22 23 24 24 25 25
17 17 17 16 16 15 15 14 13 13 13 12 12 12 12 12 12 12 11 11 11 11 11 11 11 11 11 11 11 11 11 11 11 11 12 12 12 12 12 13 13 13 14 14 15 15 15 16 17 17 18 18 18 19 19 20 20 20 21 21 21 21 22 22 23 24 24 25 25
17 17 17 16 16 15 15 14 13 13 13 13 13 12 12 12 12 12 11 11 11 11 11 10 10 10 10 11 11 11 11 11 11 11 11 12 12 12 12 13 13 13 14 14 14 14 15 16 17 17 18 18 18 19 19 20 20 20 20 21 21 21 22 22 23 24 24 25 25
17 17 17 16 16 15 14 14 14 13 13 13 13 13 13 12 12 12 11 11 11 11 10 10 10 10 10 10 11 11 11 11 11 11 11 11 12 12 12 12 13 13 14 14 14 14 15 15 16 17 17 18 18 18 19 19 20 20 20 20 20 21 21 22 23 24 24 25 25
18 17 17 17 16 15 15 14 14 14 13 13 13 13 13 12 12 12 11 11 11 10 10 10 10 10 10 10 10 10 10 11 11 11 11 11 11 12 12 12 13 13 14 14 14 14 15 15 16 16 17 18 18 18 18 19 19 20 20 20 20 21 21 22 23 24 24 25 25
18 18 17 16 16 15 15 14 14 14 14 14 13 13 13 12 12 11 11 11 11 10 10 10 10 10 10 10 10 10 10 10 11 11 11 11 11 11 12 12 13 13 13 13 14 14 15 15 15 16 17 17 18 18 18 19 19 19 20 20 20 21 21 22 23 24 24 25 25
18 18 17 16 15 15 15 14 14 14 14 14 14 13 13 12 12 12 11 11 11 10 10 10 10 10 10 10 10 10 10 10 11 11 11 11 11 11 12 12 13 13 13 13 14 14 14 15 15 16 16 17 18 18 18 19 19 19 19 20 20 21 22 22 23 24 24 25 25
18 18 17 16 15 15 15 15 15 14 14 14 14 13 13 12 12 11 11 11 11 10 10 10 10 10 10 10 10 10 10 10 10 11 11 11 11 11 12 12 13 13 13 13 13 14 14 15 15 16 16 16 17 18 18 18 19 19 19 20 20 21 22 22 23 24 24 25 25
18 18 17 16 15 15 15 15 15 15 14 14 14 13 13 12 12 12 11 11 11 10 10 10 10 9 9 10 10 10 10 10 10 10 10 11 11 11 12 12 13 13 13 13 13 14 14 14 15 15 16 16 17 17 18 18 19 19 19 20 20 21 22 22 23 23 24 24 25
18 17 17 16 16 15 15 15 15 15 15 14 14 13 13 12 12 12 11 11 10 10 10 10 9 9 9 9 10 10 10 10 10 10 10 11 11 11 12 13 13 13 13 13 13 14 14 14 15 15 15 16 17 17 18 18 18 19 19 20 21 21 22 22 23 23 24 24 25
18 17 17 16 16 16 16 16 15 15 15 14 14 13 13 12 12 11 11 11 10 10 10 9 9 9 9 9 9 9 9 10 10 10 11 11 11 12 12 13 13 13 13 13 13 14 14 14 14 15 15 16 16 17 17 18 18 19 19 20 21 21 22 22 23 23 24 24 25
18 17 17 16 16 16 16 16 15 15 15 14 14 13 13 12 12 11 11 11 10 10 10 10 9 9 9 9 9 9 9 10 10 10 11 11 11 12 12 13 13 13 13 13 13 13 14 14 14 15 15 15 16 17 17 18 18 19 19 20 21 21 22 22 23 23 24 24 25
18 17 17 17 17 16 16 16 15 15 15 14 14 13 13 12 12 11 11 11 10 10 10 10 9 9 9 9 9 9 9 10 10 11 11 11 11 12 12 13 13 13 13 13 13 13 14 14 14 14 15 15 16 17 17 18 18 19 19 20 21 21 22 22 23 23 24 24 24
18 18 17 17 17 17 16 16 16 15 15 14 14 13 13 12 12 11 11 11 10 10 10 9 9 9 9 9 9 9 10 10 10 11 11 11 11 12 12 13 13 13 13 13 13 13 13 14 14 14 15 16 16 17 17 18 18 19 19 20 21 21 22 22 23 23 24 24 25
18 18 18 17 17 17 17 16 16 15 15 14 14 13 13 12 12 11 11 11 10 10 10 9 9 9 9 9 9 10 10 10 10 11 11 11 11 12 12 12 13 13 13 13 13 13 13 14 14 14 15 16 16 17 17 18 18 19 19 20 21 21 22 22 23 23 24 24 25
18 18 18 18 17 17 17 16 16 15 15 14 14 13 13 12 12 11 11 11 10 10 10 10 9 9 9 9 9 10 10 10 10 11 11 11 11 12 12 12 13 13 13 13 13 13 14 14 14 14 15 16 16 17 17 18 18 19 19 20 21 21 22 22 22 23 24 24 25
19 19 18 18 18 18 17 17 16 16 15 14 14 13 13 12 12 12 11 11 11 10 10 10 9 9 9 9 9 10 10 10 11 11 11 11 12 12 12 12 13 13 13 13 13 13 14 14 14 14 15 16 16 17 17 18 18 19 19 20 21 21 22 22 22 23 23 24 25
19 19 19 18 18 18 17 17 16 16 15 15 14 13 13 12 12 12 11 11 11 10 10 10 9 9 9 9 9 9 10 10 11 11 11 11 11 12 12 12 13 13 13 13 13 13 13 14 14 14 15 16 16 17 17 18 18 19 19 20 20 21 21 22 22 22 23 24 25
19 19 19 19 18 18 18 17 16 16 15 15 14 14 13 13 12 12 11 11 10 10 10 10 9 9 9 9 9 10 10 10 11 11 11 11 11 12 12 12 13 13 13 13 13 13 13 14 14 14 15 16 16 17 17 18 18 19 19 20 20 20 21 21 22 22 23 24 25
Wind_Direction
268 269 270 269 268 266 266 266 266 267 267 267 267 268 269 270 271 272 273 274 275 276 277 277 278 278 278 278 278 277 277 277 277 278 279 280 281 282 282 282 283 284 286 288 291 294 296 297 300 304 308 311 312 313 314 315 317 319 320 321 322 323 324 324 324 323 323 323 323
267 268 269 268 268 267 266 266 266 266 267 267 267 267 268 269 270 271 272 272 274 275 276 277 277 277 277 277 277 277 276 277 277 278 280 281 282 282 282 282 282 283 285 288 290 293 295 298 303 306 309 310 311 312 314 316 318 319 321 322 323 323 323 323 323 323 324 324 324
266 268 268 268 267 266 265 265 265 265 265 266 267 267 268 269 270 271 271 271 273 274 275 276 276 277 277 277 277 277 277 277 278 279 280 282 282 282 281 281 282 283 285 288 290 294 297 301 304 306 308 309 310 312 314 316 318 319 321 321 322 322 323 323 323 324 324 325 325
266 267 267 267 265 264 264 264 263 263 264 265 266 267 268 269 269 270 270 270 272 273 274 275 276 277 277 277 277 277 277 277 278 279 280 281 281 281 281 281 283 285 287 290 293 296 299 302 304 305 307 309 311 313 314 316 317 319 320 320 321 321 322 323 324 324 325 325 325
265 266 267 266 265 264 263 263 262 262 263 264 265 266 266 267 268 268 269 269 271 272 274 274 275 276 277 277 277 277 277 277 278 279 280 281 281 282 282 283 285 287 289 292 295 298 300 302 303 305 307 309 311 313 314 315 317 318 319 320 321 321 322 323 324 324 324 325 324
265 266 267 266 265 264 263 263 262 262 263 263 263 263 264 265 266 266 267 268 270 272 273 273 274 275 275 276 275 275 276 277 278 279 280 282 283 284 285 286 286 288 290 293 296 298 300 302 303 305 307 309 311 312 313 314 316 317 319 320 321 321 322 323 324 324 324 324 324
264 265 265 265 264 263 262 262 262 262 262 261 261 261 261 263 264 264 265 267 269 270 271 272 272 273 273 273 274 274 275 276 278 280 282 284 286 287 287 287 287 289 291 293 295 297 299 300 302 304 306 308 309 311 313 314 316 318 319 320 321 322 323 323 323 324 324 325 325
265 265 265 264 263 262 261 261 261 260 260 259 259 259 260 261 262 263 265 267 267 268 268 269 269 270 271 271 272 273 275 277 280 283 285 287 288 287 287 286 287 289 291 292 294 296 297 299 301 302 304 306 309 311 313 315 316 318 319 321 321 322 323 323 323 324 324 325 325
264 265 265 264 262 261 260 259 258 258 257 257 257 258 259 260 261 262 265 267 268 267 267 267 267 268 270 271 273 275 277 279 282 285 286 287 286 285 284 284 286 288 290 292 294 295 297 298 300 301 304 306 309 311 313 315 317 319 320 321 321 322 322 323 323 324 324 325 325
263 264 263 262 261 260 259 258 256 255 255 255 256 257 258 259 260 262 265 267 268 268 268 268 268 269 271 272 273 275 278 280 281 282 284 284 284 283 284 285 287 289 291 292 294 295 296 298 300 302 305 307 310 312 314 315 317 319 320 320 321 322 322 323 323 324 324 325 325
261 262 261 260 259 258 256 255 254 254 254 254 254 256 257 259 260 262 264 266 267 267 268 269 269 269 270 271 272 274 276 277 278 280 282 283 284 286 287 288 289 290 291 292 293 294 295 297 300 303 306 308 310 312 314 316 318 319 319 320 321 322 323 323 323 324 324 324 325
260 260 259 258 257 255 254 252 252 252 252 252 253 255 257 259 259 260 262 264 265 266 266 266 266 266 267 268 270 272 274 276 278 280 283 285 287 289 289 290 290 291 291 291 292 293 295 297 300 303 306 308 310 312 314 316 317 319 319 320 321 322 322 323 323 323 323 324 324
258 258 257 255 253 252 251 250 251 251 251 252 253 255 257 258 258 258 260 263 264 264 263 262 262 262 264 266 269 272 275 277 280 282 285 288 290 291 291 291 291 291 291 291 292 293 296 298 301 304 306 309 310 312 314 316 317 318 319 320 321 322 322 323 323 323 323 324 325
256 255 253 251 250 249 248 249 250 251 251 251 253 255 256 257 256 258 260 263 263 261 259 258 259 261 263 266 270 274 277 280 282 286 289 291 292 293 292 291 291 290 291 292 293 295 297 299 302 304 307 309 311 313 314 315 317 318 319 320 320 321 322 322 323 323 324 325 325
253 252 250 248 246 246 247 248 249 250 250 250 252 254 256 256 256 258 260 261 260 258 256 256 258 261 264 268 272 276 279 282 285 288 292 294 294 293 292 291 291 292 293 294 296 297 299 301 303 305 307 310 311 313 314 316 317 317 318 319 320 321 321 322 323 324 324 325 326
250 249 247 244 243 243 245 246 248 249 249 249 251 253 255 255 256 257 258 258 257 256 255 256 259 262 266 269 274 277 281 284 287 290 293 294 294 293 292 292 293 294 296 297 298 299 301 303 304 306 308 310 312 313 315 316 317 317 318 319 320 321 322 322 323 324 325 325 326
247 245 243 242 241 241 242 244 246 247 247 248 250 252 253 253 254 254 254 255 255 255 256 258 261 264 267 271 275 278 281 284 288 291 293 293 293 293 294 295 296 298 298 299 300 301 303 304 306 308 309 311 313 314 315 316 317 318 318 319 320 321 322 323 324 324 325 326 326
244 243 241 240 239 239 240 241 243 244 246 247 248 250 250 250 249 249 251 252 254 255 257 260 263 266 269 272 276 279 282 285 288 290 292 292 293 295 297 298 300 300 301 301 302 303 304 306 308 309 311 312 314 315 315 316 317 318 319 320 321 322 322 323 324 325 325 326 327
241 240 238 237 237 237 238 239 240 242 244 245 247 247 247 246 245 246 248 252 254 255 257 260 264 267 270 273 276 280 283 286 288 290 292 293 295 298 299 301 302 302 302 303 304 305 307 308 310 311 312 313 314 315 316 316 317 318 319 320 321 322 323 324 325 325 326 327 327
238 236 235 235 235 236 236 237 239 240 242 243 244 244 244 243 242 244 247 251 255 256 258 261 264 267 270 273 276 280 284 286 289 291 293 295 298 300 301 302 302 303 304 305 306 308 309 310 312 313 314 314 315 316 316 317 318 319 320 321 322 323 324 324 325 326 327 327 328
235 234 233 233 233 234 235 236 237 238 239 240 241 241 241 240 241 244 248 251 254 256 258 261 264 267 270 273 277 280 284 287 289 291 294 297 299 301 302 302 303 305 306 307 308 310 311 312 313 314 314 315 316 316 317 318 318 319 320 321 322 323 324 325 326 327 328 328 329
232 231 231 231 232 233 234 235 235 236 236 237 238 238 239 239 241 245 248 251 254 256 259 262 265 267 271 274 277 281 285 288 290 293 296 299 300 302 303 304 305 306 308 309 310 311 312 313 314 315 315 316 316 317 317 318 319 320 321 322 323 324 325 326 327 327 328 329 330
230 229 230 231 231 232 232 233 233 234 234 235 235 236 237 239 241 245 248 251 253 256 259 262 266 269 272 275 279 282 285 288 291 294 297 299 301 302 304 305 307 308 309 310 311 312 313 314 315 315 316 316 317 317 318 319 320 321 322 323 324 325 326 327 327 328 329 330 330
227 228 229 230 230 230 230 230 231 231 231 232 233 235 236 239 241 244 247 250 254 257 260 263 266 270 273 277 281 284 287 288 291 294 297 299 301 303 305 306 308 309 310 311 311 312 313 314 314 315 316 317 317 318 319 320 321 322 323 324 325 326 327 327 328 329 330 330 331
225 226 227 228 228 228 229 229 228 229 230 231 233 235 237 239 242 244 247 251 254 257 260 263 266 270 274 278 282 286 288 289 290 293 296 299 302 304 305 307 308 309 310 311 313 314 314 315 315 315 316 317 318 319 320 321 322 323 324 325 325 326 327 328 329 330 330 331 332
224 224 225 226 226 227 227 227 227 228 229 231 233 235 237 239 242 245 248 251 255 257 260 263 267 271 275 279 283 287 290 291 291 293 295 299 302 304 306 307 308 309 311 312 313 314 315 316 316 317 317 318 319 320 322 323 324 324 325 326 326 327 328 329 330 330 331 332 332
223 223 224 225 225 225 225 226 227 228 229 231 233 235 237 240 242 245 248 251 255 258 261 264 267 272 276 280 284 287 290 291 293 294 297 299 302 304 306 308 309 310 311 312 313 314 315 316 317 318 318 319 320 321 323 324 325 326 326 327 327 328 329 329 330 331 332 332 333
222 222 223 223 224 224 225 226 226 228 230 232 234 236 238 240 242 245 248 252 255 258 262 265 269 273 277 281 284 287 290 292 293 296 298 301 303 305 307 309 309 310 311 312 313 314 315 317 318 319 320 320 321 322 323 325 326 327 327 327 328 328 329 330 331 331 332 333 334
221 221 222 222 223 223 224 225 226 228 230 232 234 236 238 240 243 246 249 252 255 259 262 266 270 274 278 281 284 287 290 292 294 296 299 302 305 306 308 309 310 310 311 312 313 315 316 317 318 320 321 321 322 323 324 325 326 327 328 328 328 329 330 330 331 332 333 334 334
220 220 221 221 222 223 224 225 227 228 230 233 234 236 238 240 243 246 249 252 255 259 263 267 270 273 277 280 283 287 290 292 294 297 299 302 304 306 308 309 309 310 311 313 314 316 317 318 319 320 322 322 323 324 325 326 327 328 328 329 329 330 331 331 332 333 333 334 335
220 220 220 221 222 223 224 226 227 229 230 232 234 236 238 240 243 246 249 253 256 260 263 266 270 273 276 280 283 286 289 292 295 297 299 302 304 306 307 308 309 311 312 313 315 317 318 319 320 321 322 323 324 324 325 326 327 328 329 330 330 331 331 332 333 333 334 335 335
219 219 219 220 221 223 224 225 227 228 230 232 233 235 238 240 244 247 251 253 256 259 262 265 268 272 275 279 283 286 289 292 294 297 299 301 303 305 307 309 310 311 313 314 316 317 318 320 320 321 322 323 324 325 326 327 328 329 330 331 331 332 332 333 333 334 335 335 335
218 218 219 220 221 222 224 225 226 228 229 231 233 235 238 240 244 247 251 253 256 257 260 263 267 270 274 278 282 285 288 291 294 296 299 301 303 305 307 309 311 312 313 315 317 318 319 320 321 322 323 324 325 325 326 327 328 329 330 331 332 333 333 334 334 335 335 335 336
217 217 218 219 220 222 223 224 226 227 229 231 233 235 237 239 242 245 248 252 255 258 261 264 267 271 275 278 281 284 288 291 294 296 298 301 303 306 308 310 311 312 314 316 317 318 319 320 320 321 323 324 325 325 326 328 329 330 331 332 333 333 334 335 335 335 336 336 336
216 217 218 219 220 221 222 223 225 227 228 230 232 235 237 239 241 244 247 250 254 257 261 264 268 272 275 279 282 284 287 290 293 296 299 301 304 307 309 310 312 313 314 316 317 318 319 319 320 321 323 324 324 325 326 328 329 330 331 332 333 334 335 335 336 336 337 337 337
215 216 217 218 219 220 221 223 224 226 228 229 231 233 236 239 242 244 247 249 252 255 259 262 266 270 273 277 281 284 287 290 293 296 299 302 304 307 309 311 312 313 315 316 317 317 318 318 319 321 322 323 324 325 326 328 329 330 331 332 333 334 335 336 337 338 338 338 338
215 216 216 217 218 220 221 222 224 225 227 229 231 232 234 237 241 245 247 249 251 254 257 261 264 267 271 275 279 283 287 290 293 297 299 302 304 307 309 311 312 313 315 315 316 317 317 318 319 320 321 322 323 324 326 327 328 329 331 332 333 334 335 336 337 338 339 339 339
216 216 216 217 218 219 221 222 224 225 226 228 230 232 234 237 241 244 247 249 251 252 255 259 262 266 270 274 279 283 288 291 294 296 299 302 304 306 308 310 312 313 314 315 315 316 316 317 318 319 320 321 322 324 325 327 328 329 330 332 333 333 335 336 337 338 339 339 340
216 216 217 217 218 219 221 222 223 225 226 228 230 232 235 238 242 245 247 249 251 253 255 258 261 265 269 274 279 284 288 291 294 296 299 301 303 305 308 310 311 313 314 314 315 315 316 316 317 318 320 321 322 323 325 326 328 329 330 332 333 334 335 336 337 338 339 339 340
216 217 217 218 218 219 221 222 224 225 227 228 230 232 235 238 242 245 247 250 251 253 255 257 260 264 269 273 278 283 288 291 294 297 298 300 303 305 308 309 311 312 313 314 314 314 315 316 317 318 320 321 322 323 324 326 327 329 331 332 333 334 335 336 337 338 339 340 340
217 217 218 219 219 220 221 222 224 226 227 229 230 232 236 239 242 244 246 248 250 252 254 257 260 264 269 273 278 282 287 291 294 296 299 301 303 305 307 309 311 312 313 314 314 314 315 315 317 318 320 321 322 323 324 326 327 329 331 332 333 335 336 337 338 339 339 340 341